EVA347 RCTP-VTBS

Flight info

Callsign EVA347
Flight time 3h 5m
Altitude 34000
Route CHALI1A CHALI T3 MKG A1 KADLO T1 KAPLI DCT MADRU DCT SULUX DCT IGLEG/N0478F360 DCT IKELA/K0885F360 A1 PAPRA/N0476F360 A1 UBL Y20 GRASO Y13 RUKSA EASTE1C
Aircraft B77W/H-SDE2E3FGHIJ5LORVWXY/LB1D1

Departure

Time 2026-05-07 02:31
Airport Taiwan Taoyuan International Airport (RCTP)

Arrival

Time 2026-05-07 05:36
Airport Suvarnabhumi Airport (VTBS)
Time Latitude Longitude Altitude Speed Heading
2026-05-07 01:29 25.07859 121.22976 122 ft 0 kts 137°
2026-05-07 02:18 25.07865 121.22970 122 ft 2 kts 137°
2026-05-07 02:18 25.07875 121.22959 122 ft 2 kts 137°
2026-05-07 02:18 25.07887 121.22948 122 ft 2 kts 137°
2026-05-07 02:18 25.07897 121.22937 122 ft 2 kts 137°
2026-05-07 02:19 25.07909 121.22926 122 ft 2 kts 137°
2026-05-07 02:19 25.07920 121.22915 122 ft 2 kts 148°
2026-05-07 02:19 25.07934 121.22910 122 ft 2 kts 184°
2026-05-07 02:19 25.07948 121.22915 122 ft 2 kts 215°
2026-05-07 02:20 25.07954 121.22920 122 ft 1 kts 230°
2026-05-07 02:20 25.07956 121.22923 122 ft 0 kts 230°
2026-05-07 02:22 25.07956 121.22922 122 ft 0 kts 230°
2026-05-07 02:23 25.07946 121.22911 122 ft 3 kts 227°
2026-05-07 02:23 25.07926 121.22887 122 ft 5 kts 227°
2026-05-07 02:23 25.07896 121.22850 122 ft 7 kts 228°
2026-05-07 02:23 25.07858 121.22803 122 ft 9 kts 229°
2026-05-07 02:24 25.07813 121.22746 122 ft 10 kts 229°
2026-05-07 02:24 25.07763 121.22681 122 ft 11 kts 230°
2026-05-07 02:24 25.07707 121.22611 122 ft 12 kts 229°
2026-05-07 02:24 25.07645 121.22532 122 ft 14 kts 229°
2026-05-07 02:25 25.07579 121.22448 122 ft 15 kts 229°
2026-05-07 02:25 25.07507 121.22356 122 ft 16 kts 229°
2026-05-07 02:25 25.07433 121.22259 122 ft 17 kts 230°
2026-05-07 02:25 25.07352 121.22157 122 ft 17 kts 229°
2026-05-07 02:26 25.07269 121.22053 122 ft 18 kts 229°
2026-05-07 02:26 25.07185 121.21946 122 ft 18 kts 229°
2026-05-07 02:26 25.07118 121.21854 122 ft 9 kts 232°
2026-05-07 02:26 25.07106 121.21792 122 ft 7 kts 290°
2026-05-07 02:27 25.07140 121.21748 122 ft 7 kts 317°
2026-05-07 02:27 25.07180 121.21710 122 ft 7 kts 317°
2026-05-07 02:27 25.07193 121.21697 122 ft 0 kts 317°
2026-05-07 02:27 25.07195 121.21695 122 ft 1 kts 317°
2026-05-07 02:28 25.07207 121.21683 122 ft 3 kts 317°
2026-05-07 02:28 25.07232 121.21657 122 ft 6 kts 317°
2026-05-07 02:28 25.07268 121.21635 122 ft 6 kts 337°
2026-05-07 02:28 25.07314 121.21635 122 ft 6 kts 32°
2026-05-07 02:29 25.07321 121.21641 122 ft 0 kts 44°
2026-05-07 02:29 25.07321 121.21642 122 ft 0 kts 44°
2026-05-07 02:29 25.07401 121.21740 122 ft 48 kts 50°
2026-05-07 02:30 25.07772 121.22210 122 ft 95 kts 49°
2026-05-07 02:30 25.08309 121.22889 122 ft 142 kts 50°
2026-05-07 02:30 25.09023 121.23824 259 ft 167 kts 47°
2026-05-07 02:30 25.09798 121.24799 704 ft 177 kts 46°
2026-05-07 02:31 25.10621 121.25796 1680 ft 178 kts 47°
2026-05-07 02:31 25.11414 121.26794 2362 ft 179 kts 49°
2026-05-07 02:31 25.12259 121.27904 2681 ft 199 kts 50°
2026-05-07 02:31 25.13178 121.29121 3072 ft 216 kts 47°
2026-05-07 02:32 25.14458 121.30091 3434 ft 233 kts 17°
2026-05-07 02:32 25.16108 121.30148 3787 ft 249 kts 341°
2026-05-07 02:32 25.17604 121.29098 4080 ft 267 kts 310°
2026-05-07 02:32 25.18802 121.27491 4785 ft 273 kts 306°
2026-05-07 02:33 25.19964 121.25854 5682 ft 272 kts 305°
2026-05-07 02:33 25.21120 121.24220 6479 ft 275 kts 305°
2026-05-07 02:33 25.22304 121.22546 7283 ft 277 kts 305°
2026-05-07 02:33 25.23498 121.20856 8091 ft 280 kts 305°
2026-05-07 02:34 25.24694 121.19165 8839 ft 283 kts 305°
2026-05-07 02:34 25.25910 121.17443 9594 ft 285 kts 305°
2026-05-07 02:34 25.27108 121.15691 10299 ft 289 kts 300°
2026-05-07 02:34 25.27995 121.13684 10677 ft 303 kts 286°
2026-05-07 02:35 25.28395 121.11331 11059 ft 318 kts 271°
2026-05-07 02:35 25.28177 121.08865 11456 ft 333 kts 255°
2026-05-07 02:35 25.27266 121.06438 11869 ft 350 kts 239°
2026-05-07 02:35 25.25659 121.04344 12338 ft 366 kts 222°
2026-05-07 02:36 25.23534 121.02722 13080 ft 374 kts 214°
2026-05-07 02:36 25.21401 121.01093 13889 ft 378 kts 220°
2026-05-07 02:36 25.19327 120.99272 14775 ft 382 kts 219°
2026-05-07 02:36 25.17246 120.97462 15657 ft 387 kts 221°
2026-05-07 02:37 25.15155 120.95513 16535 ft 392 kts 223°
2026-05-07 02:37 25.13120 120.93528 17380 ft 397 kts 224°
2026-05-07 02:37 25.11081 120.91459 18232 ft 401 kts 225°
2026-05-07 02:37 25.09034 120.89339 19071 ft 406 kts 225°
2026-05-07 02:38 25.06979 120.87180 19864 ft 411 kts 226°
2026-05-07 02:38 25.04910 120.84991 20625 ft 416 kts 226°
2026-05-07 02:38 25.02832 120.82779 21415 ft 420 kts 226°
2026-05-07 02:38 25.00708 120.80512 22162 ft 425 kts 226°
2026-05-07 02:39 24.98572 120.78226 22908 ft 429 kts 227°
2026-05-07 02:39 24.96434 120.75935 23664 ft 433 kts 227°
2026-05-07 02:39 24.94282 120.73629 24391 ft 438 kts 227°
2026-05-07 02:39 24.92086 120.71274 25144 ft 442 kts 227°
2026-05-07 02:40 24.89889 120.68918 25901 ft 446 kts 227°
2026-05-07 02:40 24.87665 120.66533 26629 ft 450 kts 227°
2026-05-07 02:40 24.85385 120.64089 27310 ft 455 kts 227°
2026-05-07 02:40 24.83110 120.61650 27983 ft 460 kts 227°
2026-05-07 02:41 24.80813 120.59190 28660 ft 465 kts 227°
2026-05-07 02:41 24.78487 120.56699 29317 ft 469 kts 227°
2026-05-07 02:41 24.76165 120.54215 30092 ft 470 kts 227°
2026-05-07 02:41 24.73839 120.51749 31018 ft 468 kts 225°
2026-05-07 02:42 24.71271 120.49526 31945 ft 467 kts 219°
2026-05-07 02:42 24.68616 120.47495 32705 ft 466 kts 219°
2026-05-07 02:42 24.65939 120.45468 33349 ft 467 kts 219°
2026-05-07 02:42 24.63269 120.43448 33892 ft 469 kts 219°
2026-05-07 02:43 24.57876 120.39370 33968 ft 466 kts 219°
2026-05-07 02:43 24.52522 120.35324 33970 ft 466 kts 219°
2026-05-07 02:44 24.47146 120.31264 33978 ft 467 kts 218°
2026-05-07 02:44 24.41838 120.27196 33981 ft 465 kts 219°
2026-05-07 02:45 24.36537 120.23068 33980 ft 467 kts 219°
2026-05-07 02:45 24.31265 120.18969 33976 ft 466 kts 219°
2026-05-07 02:46 24.25959 120.14851 33974 ft 466 kts 219°
2026-05-07 02:46 24.20665 120.10749 33974 ft 466 kts 219°
2026-05-07 02:47 24.15385 120.06662 33974 ft 466 kts 219°
2026-05-07 02:47 24.10086 120.02566 33971 ft 468 kts 219°
2026-05-07 02:48 24.04782 119.98470 33970 ft 467 kts 219°
2026-05-07 02:48 23.99456 119.94362 33965 ft 466 kts 219°
2026-05-07 02:49 23.94168 119.90290 33966 ft 467 kts 219°
2026-05-07 02:49 23.88831 119.86184 33968 ft 467 kts 219°
2026-05-07 02:50 23.83540 119.82117 33968 ft 468 kts 219°
2026-05-07 02:50 23.78217 119.78031 33966 ft 467 kts 219°
2026-05-07 02:51 23.72899 119.73952 33970 ft 468 kts 219°
2026-05-07 02:51 23.67586 119.69881 33971 ft 466 kts 219°
2026-05-07 02:52 23.62310 119.65816 33965 ft 466 kts 222°
2026-05-07 02:52 23.57894 119.60789 33972 ft 456 kts 239°
2026-05-07 02:53 23.54472 119.54974 33975 ft 456 kts 241°
2026-05-07 02:53 23.51096 119.49146 33972 ft 455 kts 241°
2026-05-07 02:54 23.47717 119.43319 33971 ft 456 kts 241°
2026-05-07 02:54 23.44344 119.37511 33966 ft 455 kts 241°
2026-05-07 02:55 23.40966 119.31702 33972 ft 454 kts 241°
2026-05-07 02:55 23.37599 119.25920 33971 ft 455 kts 241°
2026-05-07 02:56 23.34217 119.20119 33970 ft 454 kts 241°
2026-05-07 02:56 23.30826 119.14307 33970 ft 455 kts 241°
2026-05-07 02:57 23.27437 119.08508 33971 ft 456 kts 241°
2026-05-07 02:57 23.24042 119.02705 33970 ft 454 kts 241°
2026-05-07 02:58 23.20640 118.96895 33972 ft 455 kts 240°
2026-05-07 02:58 23.17268 118.91142 33972 ft 454 kts 240°
2026-05-07 02:59 23.13854 118.85326 33972 ft 455 kts 241°
2026-05-07 02:59 23.10463 118.79555 33972 ft 455 kts 241°
2026-05-07 03:00 23.07066 118.73780 33972 ft 455 kts 241°
2026-05-07 03:00 23.03649 118.67978 33972 ft 454 kts 241°
2026-05-07 03:01 23.00249 118.62212 33970 ft 454 kts 240°
2026-05-07 03:01 22.96679 118.56584 33970 ft 458 kts 232°
2026-05-07 03:02 22.91803 118.52073 33965 ft 467 kts 215°
2026-05-07 03:02 22.86117 118.48630 33969 ft 469 kts 213°
2026-05-07 03:03 22.80400 118.45250 33973 ft 468 kts 213°
2026-05-07 03:03 22.74680 118.41875 33973 ft 468 kts 213°
2026-05-07 03:04 22.68964 118.38506 33975 ft 468 kts 213°
2026-05-07 03:04 22.63254 118.35147 33974 ft 468 kts 213°
2026-05-07 03:05 22.57519 118.31780 33982 ft 469 kts 212°
2026-05-07 03:05 22.51776 118.28410 33982 ft 469 kts 212°
2026-05-07 03:06 22.46027 118.25041 33978 ft 469 kts 212°
2026-05-07 03:06 22.40324 118.21702 33981 ft 469 kts 212°
2026-05-07 03:07 22.34551 118.18317 33980 ft 470 kts 212°
2026-05-07 03:07 22.28796 118.14941 33978 ft 469 kts 212°
2026-05-07 03:08 22.23091 118.11603 33977 ft 469 kts 212°
2026-05-07 03:08 22.17282 118.08214 33967 ft 469 kts 212°
2026-05-07 03:09 22.11518 118.04854 33957 ft 471 kts 212°
2026-05-07 03:09 22.05760 118.01500 33952 ft 470 kts 212°
2026-05-07 03:10 21.99973 117.98132 33953 ft 472 kts 212°
2026-05-07 03:10 21.94238 117.94800 33951 ft 469 kts 212°
2026-05-07 03:11 21.88477 117.91453 33946 ft 470 kts 212°
2026-05-07 03:11 21.82726 117.88116 33945 ft 470 kts 212°
2026-05-07 03:12 21.76941 117.84762 33938 ft 471 kts 212°
2026-05-07 03:12 21.71200 117.81437 33944 ft 472 kts 212°
2026-05-07 03:13 21.65393 117.78075 33940 ft 472 kts 212°
2026-05-07 03:13 21.59580 117.74715 33943 ft 473 kts 212°
2026-05-07 03:14 21.53808 117.71381 33937 ft 472 kts 212°
2026-05-07 03:15 21.45081 117.66347 33936 ft 472 kts 212°
2026-05-07 03:15 21.39282 117.63004 33941 ft 474 kts 212°
2026-05-07 03:16 21.33476 117.59662 33946 ft 474 kts 212°
2026-05-07 03:16 21.27679 117.56325 33948 ft 474 kts 213°
2026-05-07 03:17 21.22467 117.52120 33951 ft 465 kts 230°
2026-05-07 03:17 21.18789 117.46542 33948 ft 456 kts 248°
2026-05-07 03:18 21.16880 117.40160 33942 ft 452 kts 264°
2026-05-07 03:18 21.16531 117.33485 33953 ft 448 kts 271°
2026-05-07 03:19 21.16422 117.26844 33957 ft 449 kts 271°
2026-05-07 03:19 21.16288 117.20150 33952 ft 449 kts 268°
2026-05-07 03:20 21.14915 117.13632 33955 ft 455 kts 251°
2026-05-07 03:20 21.12222 117.07501 33959 ft 457 kts 247°
2026-05-07 03:21 21.09433 117.01406 33954 ft 456 kts 247°
2026-05-07 03:21 21.06656 116.95345 33955 ft 455 kts 247°
2026-05-07 03:22 21.03862 116.89252 33953 ft 457 kts 247°
2026-05-07 03:22 21.01053 116.83134 33954 ft 457 kts 247°
2026-05-07 03:23 20.98258 116.77054 33953 ft 458 kts 247°
2026-05-07 03:23 20.95436 116.70924 33952 ft 458 kts 247°
2026-05-07 03:24 20.92633 116.64839 33952 ft 458 kts 247°
2026-05-07 03:24 20.89819 116.58738 33951 ft 457 kts 247°
2026-05-07 03:25 20.87001 116.52637 33946 ft 457 kts 247°
2026-05-07 03:25 20.84182 116.46540 33947 ft 458 kts 247°
2026-05-07 03:26 20.81376 116.40477 33945 ft 457 kts 247°
2026-05-07 03:26 20.78556 116.34391 33947 ft 459 kts 247°
2026-05-07 03:27 20.75718 116.28273 33947 ft 459 kts 247°
2026-05-07 03:27 20.72896 116.22198 33944 ft 459 kts 247°
2026-05-07 03:28 20.70057 116.16092 33945 ft 458 kts 247°
2026-05-07 03:28 20.67221 116.10001 33941 ft 458 kts 246°
2026-05-07 03:29 20.64376 116.03896 33934 ft 457 kts 246°
2026-05-07 03:29 20.61559 115.97857 33932 ft 459 kts 246°
2026-05-07 03:30 20.58700 115.91737 33937 ft 459 kts 246°
2026-05-07 03:30 20.55846 115.85633 33941 ft 460 kts 247°
2026-05-07 03:31 20.52993 115.79537 33937 ft 459 kts 246°
2026-05-07 03:31 20.50148 115.73467 33939 ft 459 kts 246°
2026-05-07 03:32 20.47289 115.67374 33938 ft 458 kts 247°
2026-05-07 03:32 20.44434 115.61295 33937 ft 458 kts 246°
2026-05-07 03:33 20.41575 115.55215 33935 ft 458 kts 247°
2026-05-07 03:33 20.38711 115.49129 33936 ft 459 kts 247°
2026-05-07 03:34 20.35859 115.43078 33935 ft 458 kts 247°
2026-05-07 03:34 20.32989 115.36995 33933 ft 459 kts 247°
2026-05-07 03:35 20.30124 115.30929 33937 ft 459 kts 246°
2026-05-07 03:35 20.27245 115.24840 33938 ft 458 kts 246°
2026-05-07 03:36 20.24388 115.18804 33937 ft 459 kts 246°
2026-05-07 03:36 20.21512 115.12733 33940 ft 464 kts 246°
2026-05-07 03:36 20.20040 115.09624 33939 ft 476 kts 246°
2026-05-07 03:37 20.18523 115.06425 33938 ft 489 kts 246°
2026-05-07 03:37 20.15415 114.99882 33935 ft 494 kts 246°
2026-05-07 03:38 20.12325 114.93387 33937 ft 493 kts 246°
2026-05-07 03:38 20.09211 114.86847 33934 ft 495 kts 246°
2026-05-07 03:39 20.06103 114.80326 33932 ft 495 kts 246°
2026-05-07 03:39 20.02998 114.73822 33934 ft 495 kts 246°
2026-05-07 03:40 19.99865 114.67264 33933 ft 496 kts 246°
2026-05-07 03:40 19.96738 114.60725 33931 ft 496 kts 246°
2026-05-07 03:41 19.93627 114.54229 33930 ft 496 kts 246°
2026-05-07 03:41 19.90507 114.47720 33932 ft 496 kts 246°
2026-05-07 03:42 19.87367 114.41178 33931 ft 497 kts 246°
2026-05-07 03:42 19.84207 114.34600 33930 ft 498 kts 245°
2026-05-07 03:43 19.81069 114.28077 33933 ft 497 kts 245°
2026-05-07 03:43 19.77919 114.21536 33932 ft 498 kts 245°
2026-05-07 03:44 19.74768 114.15001 33938 ft 498 kts 245°
2026-05-07 03:44 19.71623 114.08485 33935 ft 498 kts 245°
2026-05-07 03:45 19.68465 114.01950 33928 ft 498 kts 245°
2026-05-07 03:45 19.65304 113.95417 33924 ft 499 kts 245°
2026-05-07 03:46 19.62140 113.88886 33924 ft 499 kts 245°
2026-05-07 03:46 19.58958 113.82324 33922 ft 499 kts 245°
2026-05-07 03:47 19.55778 113.75774 33921 ft 499 kts 245°
2026-05-07 03:47 19.52610 113.69255 33917 ft 499 kts 245°
2026-05-07 03:48 19.49433 113.62727 33918 ft 499 kts 245°
2026-05-07 03:48 19.46240 113.56171 33919 ft 499 kts 245°
2026-05-07 03:49 19.43051 113.49631 33918 ft 500 kts 245°
2026-05-07 03:49 19.39877 113.43130 33917 ft 500 kts 245°
2026-05-07 03:50 19.36671 113.36571 33921 ft 500 kts 245°
2026-05-07 03:50 19.33487 113.30063 33923 ft 500 kts 245°
2026-05-07 03:51 19.30278 113.23514 33923 ft 499 kts 245°
2026-05-07 03:51 19.27079 113.16990 33924 ft 499 kts 245°
2026-05-07 03:52 19.23875 113.10465 33929 ft 500 kts 245°
2026-05-07 03:52 19.20676 113.03954 33933 ft 500 kts 245°
2026-05-07 03:53 19.17465 112.97429 33930 ft 500 kts 245°
2026-05-07 03:53 19.14258 112.90919 33930 ft 501 kts 245°
2026-05-07 03:54 19.11021 112.84354 33930 ft 501 kts 245°
2026-05-07 03:54 19.07805 112.77841 33931 ft 500 kts 245°
2026-05-07 03:55 19.04595 112.71346 33930 ft 500 kts 245°
2026-05-07 03:55 19.01375 112.64838 33930 ft 501 kts 245°
2026-05-07 03:56 18.98151 112.58329 33929 ft 501 kts 245°
2026-05-07 03:56 18.94920 112.51814 33930 ft 501 kts 245°
2026-05-07 03:57 18.91496 112.45385 33930 ft 504 kts 237°
2026-05-07 03:57 18.86587 112.40011 33915 ft 509 kts 220°
2026-05-07 03:58 18.80830 112.35575 33924 ft 510 kts 218°
2026-05-07 03:58 18.75030 112.31189 33923 ft 510 kts 217°
2026-05-07 03:59 18.69225 112.26795 33906 ft 510 kts 220°
2026-05-07 03:59 18.64329 112.21500 33907 ft 505 kts 236°
2026-05-07 04:00 18.60370 112.15329 33909 ft 505 kts 238°
2026-05-07 04:00 18.56490 112.09187 33909 ft 505 kts 238°
2026-05-07 04:01 18.52555 112.02966 33910 ft 505 kts 238°
2026-05-07 04:01 18.48662 111.96819 33910 ft 505 kts 238°
2026-05-07 04:02 18.44768 111.90675 33910 ft 505 kts 238°
2026-05-07 04:02 18.40861 111.84519 33909 ft 505 kts 238°
2026-05-07 04:03 18.36959 111.78376 33910 ft 505 kts 238°
2026-05-07 04:03 18.33021 111.72183 33910 ft 505 kts 238°
2026-05-07 04:04 18.29116 111.66046 33911 ft 505 kts 238°
2026-05-07 04:04 18.25194 111.59889 33908 ft 505 kts 238°
2026-05-07 04:05 18.21306 111.53792 33910 ft 505 kts 238°
2026-05-07 04:05 18.17368 111.47623 33909 ft 505 kts 238°
2026-05-07 04:06 18.13457 111.41501 33911 ft 505 kts 238°
2026-05-07 04:06 18.09529 111.35358 33911 ft 506 kts 238°
2026-05-07 04:07 18.05607 111.29230 33912 ft 506 kts 238°
2026-05-07 04:07 18.01768 111.23238 33911 ft 505 kts 237°
2026-05-07 04:08 17.97834 111.17104 33912 ft 505 kts 237°
2026-05-07 04:08 17.93893 111.10963 33912 ft 506 kts 238°
2026-05-07 04:09 17.89969 111.04856 33912 ft 506 kts 238°
2026-05-07 04:09 17.86023 110.98720 33909 ft 506 kts 238°
2026-05-07 04:10 17.82090 110.92609 33908 ft 505 kts 237°
2026-05-07 04:10 17.78141 110.86478 33907 ft 506 kts 237°
2026-05-07 04:11 17.74194 110.80357 33904 ft 506 kts 237°
2026-05-07 04:11 17.70243 110.74236 33902 ft 506 kts 237°
2026-05-07 04:12 17.66291 110.68119 33901 ft 506 kts 237°
2026-05-07 04:12 17.62330 110.61993 33897 ft 506 kts 237°
2026-05-07 04:13 17.58380 110.55891 33891 ft 506 kts 237°
2026-05-07 04:13 17.54437 110.49804 33887 ft 506 kts 237°
2026-05-07 04:14 17.50464 110.43675 33888 ft 506 kts 237°
2026-05-07 04:14 17.46508 110.37581 33888 ft 506 kts 237°
2026-05-07 04:15 17.42542 110.31475 33890 ft 506 kts 237°
2026-05-07 04:15 17.38625 110.25393 33890 ft 506 kts 237°
2026-05-07 04:16 17.34690 110.19238 33890 ft 506 kts 237°
2026-05-07 04:16 17.30765 110.13107 33892 ft 506 kts 237°
2026-05-07 04:17 17.26836 110.06977 33896 ft 507 kts 237°
2026-05-07 04:17 17.22899 110.00842 33895 ft 507 kts 237°
2026-05-07 04:18 17.18968 109.94724 33897 ft 506 kts 237°
2026-05-07 04:18 17.15039 109.88613 33890 ft 506 kts 237°
2026-05-07 04:19 17.11106 109.82501 33894 ft 505 kts 237°
2026-05-07 04:19 17.07167 109.76386 33892 ft 506 kts 237°
2026-05-07 04:20 17.03228 109.70277 33891 ft 506 kts 237°
2026-05-07 04:20 16.99281 109.64159 33894 ft 506 kts 237°
2026-05-07 04:21 16.93355 109.54987 33896 ft 506 kts 237°
2026-05-07 04:21 16.89416 109.48896 33895 ft 506 kts 237°
2026-05-07 04:22 16.85475 109.42807 33899 ft 505 kts 237°
2026-05-07 04:22 16.81511 109.36684 33900 ft 505 kts 237°
2026-05-07 04:23 16.77583 109.30614 33904 ft 505 kts 237°
2026-05-07 04:23 16.73645 109.24532 33900 ft 504 kts 237°
2026-05-07 04:24 16.69744 109.18513 33893 ft 503 kts 237°
2026-05-07 04:24 16.65798 109.12430 33892 ft 504 kts 237°
2026-05-07 04:25 16.61880 109.06395 33889 ft 504 kts 237°
2026-05-07 04:25 16.57951 109.00349 33888 ft 504 kts 237°
2026-05-07 04:26 16.53990 108.94299 33889 ft 504 kts 236°
2026-05-07 04:26 16.49977 108.88283 33890 ft 504 kts 236°
2026-05-07 04:27 16.45974 108.82283 33888 ft 504 kts 236°
2026-05-07 04:27 16.41968 108.76279 33889 ft 504 kts 236°
2026-05-07 04:28 16.37970 108.70293 33887 ft 504 kts 236°
2026-05-07 04:28 16.33939 108.64222 33888 ft 504 kts 237°
2026-05-07 04:29 16.30067 108.58200 33887 ft 504 kts 237°
2026-05-07 04:29 16.26148 108.52110 33881 ft 505 kts 237°
2026-05-07 04:30 16.22257 108.46075 33882 ft 505 kts 237°
2026-05-07 04:30 16.18349 108.40021 33885 ft 504 kts 237°
2026-05-07 04:31 16.14433 108.33962 33885 ft 505 kts 237°
2026-05-07 04:31 16.10510 108.27898 33888 ft 504 kts 237°
2026-05-07 04:32 16.06655 108.21870 33885 ft 504 kts 241°
2026-05-07 04:32 16.03993 108.15149 33931 ft 501 kts 254°
2026-05-07 04:33 16.02032 108.08203 33963 ft 500 kts 255°
2026-05-07 04:33 16.00085 108.01260 34016 ft 500 kts 255°
2026-05-07 04:34 15.98130 107.94299 34024 ft 501 kts 255°
2026-05-07 04:34 15.96171 107.87323 34006 ft 501 kts 255°
2026-05-07 04:35 15.94259 107.80305 33989 ft 502 kts 255°
2026-05-07 04:35 15.92361 107.73332 33968 ft 501 kts 255°
2026-05-07 04:36 15.90465 107.66380 33978 ft 501 kts 255°
2026-05-07 04:36 15.88494 107.59417 33984 ft 500 kts 255°
2026-05-07 04:37 15.86512 107.52522 33993 ft 500 kts 255°
2026-05-07 04:37 15.84503 107.45536 34009 ft 501 kts 255°
2026-05-07 04:38 15.82504 107.38584 34032 ft 501 kts 255°
2026-05-07 04:38 15.80506 107.31647 34063 ft 500 kts 254°
2026-05-07 04:39 15.78513 107.24731 34089 ft 500 kts 254°
2026-05-07 04:39 15.76510 107.17788 34099 ft 500 kts 255°
2026-05-07 04:40 15.74934 107.10764 34097 ft 499 kts 259°
2026-05-07 04:40 15.73464 107.03753 34104 ft 499 kts 258°
2026-05-07 04:41 15.71966 106.96713 34097 ft 499 kts 258°
2026-05-07 04:41 15.70449 106.89655 34049 ft 500 kts 258°
2026-05-07 04:42 15.68933 106.82640 33994 ft 501 kts 258°
2026-05-07 04:42 15.67399 106.75568 33934 ft 500 kts 258°
2026-05-07 04:43 15.65872 106.68548 33910 ft 500 kts 258°
2026-05-07 04:43 15.64339 106.61517 33915 ft 501 kts 258°
2026-05-07 04:44 15.62801 106.54477 33925 ft 501 kts 258°
2026-05-07 04:44 15.61258 106.47424 33945 ft 501 kts 258°
2026-05-07 04:45 15.59723 106.40424 33941 ft 501 kts 258°
2026-05-07 04:45 15.58176 106.33378 33940 ft 501 kts 258°
2026-05-07 04:46 15.56631 106.26354 33936 ft 502 kts 258°
2026-05-07 04:46 15.55075 106.19290 33932 ft 502 kts 258°
2026-05-07 04:47 15.53523 106.12260 33924 ft 502 kts 258°
2026-05-07 04:47 15.51967 106.05215 33912 ft 502 kts 258°
2026-05-07 04:48 15.50413 105.98197 33901 ft 502 kts 258°
2026-05-07 04:48 15.48853 105.91161 33889 ft 502 kts 258°
2026-05-07 04:49 15.47287 105.84106 33876 ft 502 kts 258°
2026-05-07 04:49 15.45726 105.77090 33863 ft 503 kts 258°
2026-05-07 04:50 15.44158 105.70048 33858 ft 503 kts 258°
2026-05-07 04:50 15.42582 105.62987 33856 ft 502 kts 258°
2026-05-07 04:51 15.40993 105.55991 33859 ft 502 kts 257°
2026-05-07 04:51 15.39335 105.48981 33864 ft 502 kts 257°
2026-05-07 04:52 15.37678 105.41975 33854 ft 502 kts 257°
2026-05-07 04:52 15.36007 105.34915 33842 ft 503 kts 257°
2026-05-07 04:53 15.34345 105.27898 33843 ft 503 kts 257°
2026-05-07 04:53 15.32679 105.20869 33842 ft 503 kts 257°
2026-05-07 04:54 15.31023 105.13893 33848 ft 502 kts 257°
2026-05-07 04:54 15.29349 105.06849 33848 ft 502 kts 257°
2026-05-07 04:55 15.27681 104.99846 33853 ft 502 kts 257°
2026-05-07 04:55 15.26014 104.92851 33855 ft 503 kts 257°
2026-05-07 04:56 15.24494 104.85826 33855 ft 502 kts 263°
2026-05-07 04:56 15.23853 104.78608 33856 ft 503 kts 266°
2026-05-07 04:57 15.23270 104.71423 33855 ft 502 kts 265°
2026-05-07 04:57 15.22684 104.64253 33850 ft 501 kts 265°
2026-05-07 04:58 15.22091 104.57059 33852 ft 501 kts 265°
2026-05-07 04:58 15.21501 104.49925 33850 ft 502 kts 265°
2026-05-07 04:59 15.20901 104.42720 33853 ft 500 kts 265°
2026-05-07 04:59 15.20304 104.35571 33850 ft 501 kts 265°
2026-05-07 05:00 15.19701 104.28387 33849 ft 502 kts 265°
2026-05-07 05:00 15.19097 104.21219 33848 ft 501 kts 265°
2026-05-07 05:01 15.18489 104.14023 33849 ft 501 kts 265°
2026-05-07 05:01 15.17883 104.06889 33852 ft 501 kts 265°
2026-05-07 05:02 15.17270 103.99697 33854 ft 500 kts 265°
2026-05-07 05:02 15.16660 103.92562 33856 ft 500 kts 265°
2026-05-07 05:03 15.16046 103.85405 33854 ft 500 kts 265°
2026-05-07 05:03 15.15190 103.78252 33856 ft 501 kts 257°
2026-05-07 05:04 15.13103 103.71369 33855 ft 501 kts 252°
2026-05-07 05:04 15.10893 103.64535 33853 ft 501 kts 252°
2026-05-07 05:05 15.08692 103.57735 33850 ft 500 kts 252°
2026-05-07 05:05 15.06474 103.50887 33849 ft 501 kts 252°
2026-05-07 05:06 15.04266 103.44077 33848 ft 500 kts 252°
2026-05-07 05:06 15.02058 103.37274 33849 ft 501 kts 252°
2026-05-07 05:07 14.99841 103.30450 33852 ft 501 kts 252°
2026-05-07 05:07 14.97613 103.23599 33852 ft 501 kts 252°
2026-05-07 05:08 14.95396 103.16790 33851 ft 501 kts 252°
2026-05-07 05:08 14.93168 103.09956 33849 ft 501 kts 252°
2026-05-07 05:09 14.90946 103.03148 33847 ft 502 kts 252°
2026-05-07 05:09 14.88716 102.96323 33846 ft 501 kts 252°
2026-05-07 05:10 14.86494 102.89523 33845 ft 501 kts 252°
2026-05-07 05:10 14.84374 102.82631 33848 ft 502 kts 253°
2026-05-07 05:12 14.76092 102.55594 33854 ft 501 kts 253°
2026-05-07 05:13 14.73976 102.48723 33862 ft 500 kts 253°
2026-05-07 05:13 14.72943 102.45370 33863 ft 483 kts 253°
2026-05-07 05:13 14.71947 102.42141 33864 ft 466 kts 253°
2026-05-07 05:14 14.70980 102.39011 33867 ft 454 kts 253°
2026-05-07 05:14 14.70013 102.35877 33878 ft 458 kts 253°
2026-05-07 05:14 14.68072 102.29591 33877 ft 458 kts 252°
2026-05-07 05:15 14.66146 102.23366 33878 ft 458 kts 252°
2026-05-07 05:15 14.64221 102.17149 33214 ft 453 kts 252°
2026-05-07 05:16 14.63257 102.14038 32360 ft 455 kts 252°
2026-05-07 05:16 14.62293 102.10928 31598 ft 456 kts 252°
2026-05-07 05:16 14.61331 102.07828 30821 ft 457 kts 253°
2026-05-07 05:16 14.60364 102.04713 30297 ft 452 kts 253°
2026-05-07 05:17 14.59399 102.01606 29836 ft 459 kts 253°
2026-05-07 05:17 14.58421 101.98455 29311 ft 469 kts 253°
2026-05-07 05:17 14.57414 101.95216 28754 ft 468 kts 253°
2026-05-07 05:17 14.56437 101.92074 28224 ft 464 kts 253°
2026-05-07 05:18 14.55337 101.88961 27690 ft 461 kts 248°
2026-05-07 05:18 14.54092 101.85913 27148 ft 457 kts 248°
2026-05-07 05:18 14.52867 101.82928 26604 ft 454 kts 248°
2026-05-07 05:18 14.51644 101.79931 26059 ft 451 kts 248°
2026-05-07 05:19 14.50445 101.76979 25524 ft 447 kts 248°
2026-05-07 05:19 14.49241 101.74004 24981 ft 444 kts 248°
2026-05-07 05:19 14.48057 101.71072 24438 ft 441 kts 248°
2026-05-07 05:19 14.46884 101.68163 23902 ft 438 kts 248°
2026-05-07 05:20 14.45719 101.65270 23358 ft 436 kts 247°
2026-05-07 05:20 14.44555 101.62378 22814 ft 433 kts 247°
2026-05-07 05:20 14.43411 101.59533 22272 ft 430 kts 247°
2026-05-07 05:20 14.42261 101.56673 21740 ft 428 kts 247°
2026-05-07 05:21 14.41117 101.53828 21204 ft 426 kts 247°
2026-05-07 05:21 14.38858 101.48216 20114 ft 422 kts 247°
2026-05-07 05:21 14.37734 101.45421 19561 ft 420 kts 247°
2026-05-07 05:22 14.36625 101.42667 19013 ft 419 kts 247°
2026-05-07 05:22 14.35505 101.39883 18446 ft 417 kts 247°
2026-05-07 05:22 14.34393 101.37125 17885 ft 414 kts 247°
2026-05-07 05:22 14.33298 101.34405 17328 ft 412 kts 246°
2026-05-07 05:23 14.32180 101.31684 16733 ft 410 kts 243°
2026-05-07 05:23 14.30741 101.29182 16220 ft 403 kts 232°
2026-05-07 05:23 14.28908 101.27038 15873 ft 387 kts 222°
2026-05-07 05:23 14.26916 101.25246 15420 ft 376 kts 219°
2026-05-07 05:24 14.24923 101.23523 14866 ft 373 kts 219°
2026-05-07 05:24 14.22933 101.21811 14329 ft 369 kts 218°
2026-05-07 05:24 14.20969 101.20126 13823 ft 365 kts 218°
2026-05-07 05:24 14.19023 101.18462 13334 ft 360 kts 218°
2026-05-07 05:25 14.17109 101.16828 12883 ft 358 kts 219°
2026-05-07 05:25 14.15177 101.15181 12455 ft 356 kts 218°
2026-05-07 05:25 14.13274 101.13560 12075 ft 349 kts 218°
2026-05-07 05:25 14.11446 101.12004 11876 ft 332 kts 218°
2026-05-07 05:26 14.09702 101.10520 11653 ft 315 kts 219°
2026-05-07 05:26 14.08018 101.09088 11151 ft 310 kts 219°
2026-05-07 05:26 14.06391 101.07632 10913 ft 314 kts 228°
2026-05-07 05:26 14.05212 101.05772 10781 ft 307 kts 243°
2026-05-07 05:27 14.04279 101.03762 10178 ft 315 kts 246°
2026-05-07 05:27 14.03387 101.01708 9743 ft 315 kts 246°
2026-05-07 05:27 14.02493 100.99651 9450 ft 310 kts 246°
2026-05-07 05:27 14.01609 100.97627 9108 ft 308 kts 246°
2026-05-07 05:28 14.00741 100.95647 9007 ft 296 kts 246°
2026-05-07 05:28 14.00068 100.93736 8975 ft 280 kts 263°
2026-05-07 05:28 14.00083 100.91773 8788 ft 267 kts 280°
2026-05-07 05:28 14.00428 100.89899 8342 ft 265 kts 284°
2026-05-07 05:29 14.00850 100.88076 7885 ft 266 kts 285°
2026-05-07 05:29 14.01268 100.86209 7283 ft 271 kts 276°
2026-05-07 05:29 14.01070 100.84306 6657 ft 275 kts 247°
2026-05-07 05:29 14.00053 100.82637 6055 ft 276 kts 222°
2026-05-07 05:30 13.98447 100.81638 5632 ft 265 kts 195°
2026-05-07 05:30 13.96704 100.81150 5296 ft 258 kts 192°
2026-05-07 05:30 13.94968 100.80706 5003 ft 256 kts 192°
2026-05-07 05:30 13.93228 100.80265 4645 ft 255 kts 192°
2026-05-07 05:31 13.91517 100.79831 4258 ft 249 kts 192°
2026-05-07 05:31 13.89857 100.79409 3910 ft 242 kts 192°
2026-05-07 05:31 13.88246 100.78998 3582 ft 234 kts 192°
2026-05-07 05:31 13.86672 100.78592 3261 ft 227 kts 193°
2026-05-07 05:32 13.85184 100.78202 2983 ft 215 kts 193°
2026-05-07 05:32 13.83740 100.77820 2686 ft 209 kts 193°
2026-05-07 05:32 13.82386 100.77462 2395 ft 192 kts 193°
2026-05-07 05:32 13.81131 100.77131 2139 ft 179 kts 193°
2026-05-07 05:33 13.79957 100.76823 1893 ft 168 kts 193°
2026-05-07 05:33 13.78859 100.76535 1657 ft 157 kts 193°
2026-05-07 05:33 13.77811 100.76260 1650 ft 155 kts 192°
2026-05-07 05:33 13.76761 100.75987 1592 ft 153 kts 192°
2026-05-07 05:34 13.75738 100.75718 1534 ft 152 kts 192°
2026-05-07 05:34 13.74670 100.75462 1361 ft 158 kts 190°
2026-05-07 05:34 13.73578 100.75206 1028 ft 163 kts 194°
2026-05-07 05:34 13.72469 100.74901 653 ft 165 kts 195°
2026-05-07 05:35 13.71365 100.74591 275 ft 162 kts 196°
2026-05-07 05:35 13.70292 100.74307 50 ft 155 kts 196°
2026-05-07 05:35 13.69332 100.74045 15 ft 122 kts 193°
2026-05-07 05:35 13.68661 100.73865 15 ft 77 kts 193°
2026-05-07 05:36 13.68329 100.73782 15 ft 32 kts 194°
2026-05-07 05:36 13.68115 100.73733 15 ft 29 kts 177°
2026-05-07 05:36 13.67924 100.73776 15 ft 21 kts 165°
2026-05-07 05:36 13.67863 100.73817 15 ft 0 kts 98°
2026-05-07 05:37 13.67863 100.73818 15 ft 0 kts 97°
2026-05-07 05:38 13.67863 100.73820 15 ft 0 kts 94°
2026-05-07 05:38 13.67863 100.73821 15 ft 0 kts 93°
2026-05-07 05:38 13.67868 100.73834 15 ft 4 kts 49°
2026-05-07 05:39 13.67910 100.73853 14 ft 10 kts 15°
2026-05-07 05:39 13.68000 100.73877 15 ft 16 kts 15°
2026-05-07 05:39 13.68131 100.73911 15 ft 21 kts 14°
2026-05-07 05:39 13.68296 100.73955 14 ft 26 kts 14°
2026-05-07 05:40 13.68488 100.74005 15 ft 28 kts 15°
2026-05-07 05:40 13.68679 100.74054 15 ft 27 kts 15°
2026-05-07 05:40 13.68857 100.74102 14 ft 25 kts 14°
2026-05-07 05:40 13.69028 100.74146 15 ft 24 kts 14°
2026-05-07 05:41 13.69189 100.74187 15 ft 23 kts 14°
2026-05-07 05:41 13.69340 100.74228 15 ft 21 kts 14°
2026-05-07 05:41 13.69468 100.74267 15 ft 14 kts 40°
2026-05-07 05:41 13.69478 100.74374 15 ft 16 kts 100°
2026-05-07 05:42 13.69450 100.74494 15 ft 17 kts 103°
2026-05-07 05:42 13.69499 100.74578 14 ft 14 kts 22°
2026-05-07 05:42 13.69557 100.74595 15 ft 2 kts 14°
2026-05-07 05:42 13.69574 100.74600 14 ft 2 kts 30°
2026-05-07 05:43 13.69582 100.74612 14 ft 2 kts 68°
2026-05-07 05:43 13.69587 100.74636 15 ft 3 kts 94°
2026-05-07 05:43 13.69580 100.74671 15 ft 6 kts 104°
2026-05-07 05:43 13.69575 100.74690 15 ft 2 kts 104°
2026-05-07 05:44 13.69574 100.74694 15 ft 0 kts 104°